Lapse_Rate
4.7 4.1 3.4 4.0 4.3 3.9 3.9 4.0 3.7 4.2 4.5 4.3 4.6 4.5 4.8 4.7 5.1 5.4 6.2 6.2 6.1 6.3 6.6 6.6 6.5 6.7 7.1 7.0 7.0 6.9 6.8 6.7 6.7 6.7 6.7 6.8 7.1 7.1 6.9 6.9 6.8 6.5 6.2 6.0
4.3 4.6 4.7 4.2 3.6 3.8 3.8 3.6 3.5 3.6 4.3 4.5 4.6 4.7 5.0 4.8 4.9 5.4 5.5 6.3 6.0 6.0 6.5 6.5 6.4 6.7 7.0 7.0 7.0 7.0 6.8 6.8 6.8 6.6 6.5 6.5 6.8 6.8 6.8 6.8 6.5 6.3 6.0 5.9
4.7 4.8 4.7 4.4 3.9 3.8 3.8 3.8 3.8 4.0 4.6 4.6 4.2 4.4 5.3 6.2 5.5 5.7 5.8 6.0 6.3 6.1 6.3 6.5 6.4 6.7 6.9 7.0 7.0 6.9 6.8 6.7 6.7 6.5 6.3 6.4 6.7 6.9 6.8 6.6 6.4 6.2 5.9 5.7
4.3 4.6 4.3 4.1 4.1 3.9 3.9 4.1 4.3 3.9 3.8 3.5 4.7 3.2 4.4 4.9 5.5 5.9 6.1 5.8 6.2 6.1 6.1 6.5 6.6 6.7 6.9 7.0 6.9 6.7 6.7 6.7 6.7 6.6 6.4 6.4 6.5 6.7 6.6 6.5 6.2 5.9 5.8 5.7
4.7 4.5 4.5 4.4 4.5 4.5 3.7 4.3 4.5 4.1 4.0 3.9 3.7 3.8 3.3 4.8 5.5 6.0 6.0 6.3 6.6 6.5 6.0 6.3 6.5 6.7 7.0 6.9 6.9 6.7 6.7 6.6 6.6 6.5 6.4 6.4 6.6 6.6 6.6 6.3 6.0 5.8 5.6 5.6
4.2 4.2 4.0 4.2 5.0 4.8 4.6 4.5 4.7 4.7 4.4 4.1 3.9 4.2 3.8 4.4 5.3 5.9 6.1 6.4 6.5 6.7 6.3 6.2 6.3 6.6 6.8 6.9 6.9 6.8 6.8 6.7 6.6 6.6 6.6 6.6 6.5 6.4 6.3 6.1 5.8 5.6 5.5 5.4
4.3 4.3 4.3 4.3 4.8 5.2 5.1 5.1 5.4 5.6 5.2 4.5 5.1 4.4 4.2 5.0 5.3 5.3 6.2 6.6 6.2 6.7 6.6 6.5 6.5 6.6 6.9 6.9 6.9 6.8 6.8 6.9 6.7 6.8 6.7 6.5 6.4 6.2 5.9 5.7 5.6 5.5 5.4 5.3
4.5 4.7 5.5 6.0 6.2 6.4 6.6 6.6 6.6 6.3 5.9 5.3 6.5 4.6 4.5 5.5 6.2 6.2 6.5 6.8 6.4 6.5 6.7 6.8 6.8 6.8 7.0 7.0 6.8 7.0 6.9 6.9 6.8 6.8 6.6 6.4 6.2 6.0 5.7 5.4 5.4 5.4 5.3 5.2
5.0 5.2 6.1 6.8 7.3 7.1 6.7 6.8 7.4 7.1 7.5 6.8 6.9 5.9 5.2 5.8 6.6 6.8 6.9 6.9 6.8 6.7 7.0 7.1 7.1 7.0 7.0 7.0 6.8 7.0 6.9 6.9 6.8 6.6 6.5 6.4 6.1 5.8 5.5 5.2 5.2 5.2 5.3 5.3
4.6 4.9 5.7 6.2 6.6 6.5 6.5 7.0 7.0 6.5 6.8 6.7 6.9 6.8 6.5 7.6 7.2 6.5 6.3 6.8 6.9 7.0 7.3 7.3 7.2 7.2 7.2 7.0 6.8 6.9 6.8 6.7 6.7 6.5 6.4 6.3 6.0 5.7 5.5 5.4 5.3 5.3 5.3 5.4
4.6 4.3 5.1 5.6 6.0 7.0 6.6 6.5 6.8 6.9 6.8 6.6 6.4 7.4 8.1 7.9 7.4 6.9 6.9 7.1 7.1 7.2 7.5 7.5 7.4 7.4 7.4 7.0 6.8 6.8 6.8 6.8 6.6 6.6 6.4 6.2 6.0 5.8 5.6 5.5 5.4 5.5 5.5 5.5
4.8 4.4 4.8 5.8 6.6 6.7 6.8 6.9 7.2 6.9 6.8 7.0 7.0 6.8 7.8 7.6 7.5 6.8 6.7 7.5 7.3 7.7 7.6 7.4 7.6 7.5 7.3 6.8 6.7 6.6 6.7 6.7 6.6 6.4 6.3 6.2 6.0 5.8 5.7 5.5 5.6 5.6 5.6 5.7
5.0 4.9 5.5 5.7 6.0 6.2 6.2 6.6 6.8 7.2 7.2 7.4 6.4 6.7 8.1 7.0 7.2 6.1 6.6 7.1 7.3 7.8 7.9 7.9 7.6 7.1 7.1 6.9 6.6 6.6 6.6 6.6 6.6 6.4 6.3 6.1 5.9 5.7 5.6 5.6 5.6 5.6 5.7 5.9
5.0 5.4 5.7 5.8 6.1 6.1 6.3 6.3 6.7 6.7 6.7 6.6 6.3 6.5 7.3 7.3 6.9 6.0 6.4 6.9 7.5 7.8 7.9 7.8 7.6 7.3 6.8 6.6 6.4 6.5 6.4 6.5 6.5 6.3 6.1 6.0 5.8 5.7 5.7 5.7 5.6 5.8 5.9 5.9
5.1 5.2 5.5 5.7 5.8 5.8 5.9 6.3 6.5 5.8 6.3 6.2 6.6 6.6 7.4 6.4 6.3 5.7 5.9 6.8 7.1 7.6 7.6 7.5 7.3 7.0 6.6 6.5 6.4 6.2 6.2 6.3 6.2 6.1 6.0 5.9 5.8 5.8 5.8 5.8 5.9 5.9 5.9 5.9
5.6 5.5 5.1 4.9 5.1 5.0 4.9 5.1 5.4 5.9 6.1 6.2 6.4 6.4 6.6 6.6 5.0 5.5 5.8 6.6 7.1 7.5 7.4 7.3 7.0 6.6 6.3 6.2 6.1 6.0 6.0 6.1 6.1 5.9 5.8 5.9 6.0 5.8 5.8 5.9 5.9 5.9 5.9 5.9
5.2 4.9 4.8 5.1 5.0 5.1 4.7 5.0 5.0 5.4 5.8 6.1 5.4 7.8 6.1 5.6 5.4 5.9 6.7 7.1 7.0 7.0 7.1 6.9 6.7 6.3 6.0 5.9 5.8 5.8 5.8 5.7 5.7 5.8 6.0 5.8 5.8 5.9 5.9 5.9 5.8 5.9 5.9 5.7
5.2 5.1 5.0 4.9 4.9 5.4 5.2 5.7 5.8 6.2 6.2 5.8 5.5 6.1 5.9 5.8 6.0 6.5 6.9 7.0 7.0 6.9 6.7 6.5 6.3 6.0 5.7 5.6 5.5 5.6 5.8 5.8 5.8 5.8 5.8 5.9 5.9 6.0 5.9 5.8 5.8 5.9 5.8 5.6
5.4 5.4 4.9 4.8 5.0 5.6 5.2 5.4 5.8 5.9 6.1 6.1 6.1 6.2 6.1 6.0 6.2 7.0 7.3 7.3 7.0 6.8 6.7 6.5 6.1 5.9 5.9 5.9 5.8 5.7 5.7 5.7 5.7 5.7 5.8 6.0 6.0 5.8 5.8 5.8 5.9 5.9 5.5 5.3
5.1 5.0 4.7 4.7 5.0 5.1 5.6 5.6 5.4 5.2 5.8 6.0 6.2 6.0 6.1 6.3 7.0 7.1 7.1 7.2 7.2 7.1 6.9 6.6 6.4 6.1 6.0 5.9 5.8 5.7 5.6 5.7 5.8 5.9 5.9 6.0 5.8 5.8 5.9 5.9 5.7 5.4 5.3 5.2
4.9 4.8 4.8 4.8 4.9 5.8 5.7 6.0 5.6 5.9 6.6 7.0 7.2 7.2 7.0 6.9 6.9 6.8 7.0 7.0 7.2 7.1 6.8 6.7 6.5 6.2 5.9 5.8 5.7 5.6 5.7 5.8 5.8 5.9 5.8 5.9 5.9 5.9 5.8 5.5 5.4 5.3 5.0 4.8
5.4 5.4 5.1 4.8 4.7 5.4 6.1 6.2 6.3 6.2 6.7 6.8 6.7 6.8 6.8 6.8 6.7 6.6 6.7 7.0 7.1 7.0 6.9 6.7 6.5 6.2 6.0 5.8 5.8 5.8 5.8 5.8 5.8 5.8 5.8 5.9 5.8 5.6 5.4 5.3 5.1 4.9 4.9 4.8
5.7 5.9 5.9 5.7 6.0 5.9 5.9 6.1 6.4 6.7 7.0 7.1 7.0 6.9 6.9 6.9 6.9 6.9 7.0 7.2 7.1 6.9 6.7 6.6 6.4 6.1 6.0 5.9 5.8 5.8 5.8 5.8 5.7 5.8 5.8 5.7 5.4 5.3 5.1 4.9 4.9 4.9 4.7 4.8
6.1 5.7 5.9 6.0 6.3 6.3 6.3 6.4 6.7 6.7 7.1 7.2 7.2 7.1 7.0 6.9 6.8 7.0 7.1 7.0 6.9 6.8 6.6 6.4 6.2 6.1 5.9 5.8 5.6 5.6 5.6 5.6 5.6 5.5 5.4 5.3 5.1 5.0 5.0 5.0 4.8 4.8 4.8 4.7
6.6 6.3 6.2 6.2 6.3 6.3 6.6 6.7 6.8 6.9 7.2 7.4 7.4 7.3 7.1 7.0 7.0 7.0 6.9 6.8 6.6 6.5 6.4 6.2 5.9 5.7 5.6 5.5 5.4 5.4 5.4 5.4 5.4 5.3 5.2 5.1 5.1 5.0 4.9 4.8 4.8 4.7 4.6 4.6
7.1 6.7 6.4 6.4 6.4 6.5 6.7 6.8 6.8 7.0 7.1 7.2 7.3 7.4 7.2 7.0 6.8 6.7 6.5 6.4 6.2 6.1 5.9 5.7 5.5 5.3 5.2 5.2 5.2 5.3 5.4 5.4 5.3 5.3 5.3 5.2 5.0 5.0 4.9 4.7 4.5 4.5 4.4 4.1
Wind_Speed
1 4 9 10 7 5 3 3 9 7 10 11 13 16 16 10 10 11 14 10 11 10 11 6 5 6 5 5 8 11 14 11 11 9 8 5 5 5 5 6 10 11 15 14
1 10 8 3 5 7 6 10 12 9 11 9 11 24 18 17 19 13 12 15 11 10 6 6 6 6 7 6 8 10 11 11 9 8 4 5 6 5 5 5 8 11 14 13
10 4 5 8 5 6 6 9 6 10 9 13 13 29 19 23 24 21 20 19 16 15 10 8 8 9 7 7 8 10 11 12 10 11 9 8 8 6 4 3 4 4 12 13
9 9 9 5 4 7 13 7 11 10 4 5 3 10 9 9 11 13 18 14 14 13 8 7 8 8 8 8 7 10 12 12 12 12 12 16 8 8 3 3 3 4 10 11
4 3 6 13 16 7 4 6 8 9 7 6 9 6 5 5 9 13 11 10 13 14 13 12 13 14 6 9 9 10 11 11 12 11 13 9 9 5 4 5 7 6 5 10
7 3 4 5 3 11 2 4 6 4 4 9 11 9 12 5 7 8 13 11 13 13 12 11 8 9 7 7 9 10 13 11 10 10 11 13 14 11 9 5 5 4 4 4
4 16 2 3 3 4 7 5 2 4 6 8 6 10 21 9 12 10 11 11 10 9 9 9 13 13 12 12 11 10 13 12 10 11 9 11 13 12 11 8 5 6 3 3
5 5 12 11 15 6 10 9 4 5 3 4 7 7 6 11 16 17 16 12 6 7 8 11 14 15 14 14 13 13 13 12 9 9 8 8 10 7 6 5 5 4 4 4
4 5 1 5 5 11 5 10 13 7 7 4 5 7 8 11 11 13 11 11 9 8 9 13 13 12 14 15 14 14 13 10 9 9 9 8 8 9 8 7 6 4 5 4
2 6 4 2 6 11 8 2 4 6 6 6 7 8 9 13 6 9 13 10 10 9 10 10 11 12 9 10 8 10 12 13 8 9 8 8 8 8 8 7 7 7 5 5
7 4 1 2 9 13 7 7 6 2 3 3 3 5 7 6 3 14 16 10 9 11 12 12 12 12 12 9 9 10 11 13 10 9 9 10 9 9 8 7 6 6 6 6
9 3 5 12 6 11 13 13 16 7 6 4 4 13 6 3 5 12 14 6 1 7 8 9 9 12 13 12 10 10 10 12 10 9 10 10 9 8 8 7 6 6 6 5
9 5 3 4 0 2 9 12 15 14 3 9 5 4 1 6 14 10 7 2 4 7 9 9 12 12 11 11 11 10 10 12 11 10 11 9 8 8 7 7 6 6 6 6
13 5 7 9 3 3 5 9 15 14 9 16 18 14 14 16 11 13 3 2 5 9 10 10 10 11 11 11 11 10 10 11 11 10 10 9 7 7 7 6 6 6 6 6
6 7 10 20 22 15 11 11 16 20 20 11 14 18 19 14 15 12 5 7 7 8 10 11 12 11 11 12 10 10 10 10 10 10 9 8 7 7 7 6 6 6 6 5
7 6 5 12 15 17 15 20 20 20 22 21 21 21 14 15 15 15 12 10 11 11 10 10 12 13 12 12 11 11 10 10 10 10 9 8 7 7 6 6 6 6 5 5
3 3 3 8 2 10 10 23 22 18 15 17 16 25 11 17 10 5 6 8 8 10 11 12 13 13 12 12 12 12 10 10 9 10 8 7 7 7 6 6 6 5 5 3
5 3 2 6 7 3 3 9 20 24 12 19 19 5 10 9 4 4 6 6 8 11 12 12 11 11 11 10 10 11 10 9 10 8 8 6 7 7 6 6 5 4 2 3
10 3 3 4 5 5 2 2 3 13 11 16 19 17 14 3 2 4 2 3 5 8 9 9 10 12 12 12 12 12 10 9 9 8 7 6 7 6 6 5 4 2 3 3
6 1 0 4 4 4 3 0 4 6 4 17 17 17 10 3 4 3 6 5 8 9 11 12 12 12 13 10 12 13 10 9 8 7 7 6 6 6 6 5 4 2 2 2
3 2 6 6 4 6 2 3 5 2 5 5 16 12 7 5 2 3 7 8 6 9 11 12 12 11 11 11 12 12 10 8 7 8 8 7 6 6 6 4 2 2 3 4
6 5 3 4 3 4 2 4 2 3 4 3 4 5 7 8 6 9 8 7 10 12 11 12 13 11 9 10 13 11 10 7 8 8 8 7 6 4 4 5 2 3 4 4
3 5 3 6 5 3 2 4 4 3 3 1 6 5 12 11 6 8 7 9 9 11 10 11 13 13 8 7 10 12 6 9 8 7 7 6 5 4 4 4 4 3 3 3
4 4 2 3 1 4 4 1 2 4 2 2 6 11 10 14 10 10 10 10 10 9 11 12 13 12 9 8 9 10 8 7 8 7 6 5 5 4 3 3 2 2 3 4
4 4 4 5 7 5 5 2 4 5 7 10 10 8 14 16 12 11 10 10 9 10 9 10 11 10 9 10 9 7 7 8 7 6 5 5 4 3 3 3 1 2 3 3
5 6 4 5 4 2 3 6 6 7 6 7 15 12 9 11 13 13 10 8 9 10 10 10 10 11 9 9 8 6 6 7 7 6 4 3 3 2 2 3 4 6 8 11
Wind_Direction
154 208 213 212 214 254 294 263 272 267 302 305 279 276 276 269 262 263 271 261 263 253 262 247 235 192 181 147 140 145 144 145 136 134 127 122 115 106 87 86 91 99 103 103
194 244 233 253 216 236 243 268 274 284 264 267 288 283 284 271 264 250 253 265 249 253 245 239 194 192 183 173 149 143 142 147 140 137 115 118 125 84 87 91 90 101 103 102
220 202 199 189 202 228 229 235 255 260 291 281 297 285 271 263 249 246 243 243 242 245 229 214 197 206 172 185 158 145 144 148 133 123 111 103 96 94 92 86 88 76 98 96
246 235 232 190 205 193 258 196 234 250 254 256 135 287 264 290 281 242 250 241 234 224 218 203 188 191 200 171 146 143 146 143 139 142 137 144 145 142 143 134 112 95 94 92
221 182 217 230 229 177 248 188 214 234 241 279 236 272 291 245 268 257 250 232 220 218 209 198 193 197 172 152 152 150 144 148 147 151 149 141 128 112 116 117 112 102 86 90
230 195 191 215 253 206 203 216 246 247 253 251 224 204 271 213 234 223 237 236 227 217 205 198 175 139 141 141 145 151 151 147 150 137 143 143 136 136 133 130 120 118 103 88
245 235 192 207 198 177 185 209 241 222 205 241 183 208 248 295 287 255 257 254 241 213 183 162 159 161 161 164 158 158 155 150 150 141 135 138 140 141 141 145 138 135 120 83
221 293 191 189 209 182 187 185 204 222 228 268 210 242 250 225 253 260 269 257 261 206 180 176 179 171 167 163 162 157 157 144 141 139 127 119 127 132 123 131 130 118 110 117
208 262 143 204 180 193 173 209 222 275 268 289 250 290 291 250 246 252 240 236 220 199 183 182 174 174 167 160 167 155 148 138 138 132 124 118 121 125 129 120 109 108 115 117
243 277 209 195 160 251 203 160 197 196 196 228 242 257 253 295 334 298 276 246 227 206 181 174 165 154 157 148 132 129 138 136 126 119 120 120 119 113 114 111 113 111 106 94
168 230 314 174 206 192 184 220 216 297 226 217 275 262 210 189 291 340 310 267 225 194 185 170 163 146 130 118 127 123 124 123 116 116 115 116 114 110 105 107 112 110 101 97
198 222 227 224 232 215 217 211 213 222 224 236 180 255 316 227 10 1 333 313 170 141 138 140 134 129 133 127 127 125 125 120 118 118 114 112 111 109 107 108 109 109 108 95
164 216 270 282 224 189 217 223 215 227 256 224 213 266 218 300 311 333 314 340 111 112 118 121 133 133 130 124 122 122 125 119 116 115 117 112 112 111 110 111 112 107 105 89
178 218 207 247 237 180 210 210 213 216 232 238 244 275 293 309 306 309 269 195 152 139 135 138 130 130 129 125 124 122 117 121 120 117 118 118 117 117 118 117 112 104 96 86
193 256 233 243 247 235 216 204 213 219 226 222 257 254 262 271 302 303 271 183 161 149 151 149 142 135 127 121 118 122 123 123 123 120 119 118 120 119 117 112 105 98 87 81
208 257 245 263 246 231 226 221 223 224 226 232 252 273 279 281 277 291 289 180 173 163 157 144 140 138 136 136 134 130 127 124 123 122 121 124 122 120 114 110 107 97 82 68
233 260 258 277 350 284 239 234 220 223 221 212 220 240 283 282 286 270 295 229 176 164 160 157 154 143 140 141 139 136 131 123 117 119 122 126 123 116 112 112 103 87 72 51
201 206 250 286 305 238 274 288 216 215 217 217 234 211 223 249 275 232 235 196 163 157 155 151 140 128 131 128 119 118 123 120 119 119 122 123 118 111 110 101 93 78 58 37
198 146 296 286 302 279 17 351 103 173 239 226 219 232 253 241 225 183 254 33 144 142 138 131 129 130 130 129 130 122 113 113 117 123 123 122 117 114 110 98 92 77 51 22
195 220 281 323 308 343 316 335 83 88 272 193 199 218 225 119 281 315 44 62 80 98 120 122 120 120 118 122 123 118 119 119 121 124 119 112 108 111 109 109 88 57 55 345
166 184 226 259 282 287 275 199 123 39 298 1 197 202 148 179 317 84 58 46 64 88 100 110 113 115 118 119 117 114 118 120 119 111 103 99 100 104 113 96 81 61 20 10
182 173 206 210 250 314 60 74 233 239 303 350 100 128 116 115 102 83 76 90 90 96 102 106 106 104 102 112 115 115 111 116 108 105 101 99 101 95 99 96 67 50 27 2
225 196 189 185 221 259 258 257 301 295 283 180 119 129 129 119 90 101 118 100 97 104 102 105 109 104 82 86 117 113 118 112 108 100 103 105 98 88 79 69 51 36 9 351
227 186 223 10 260 268 279 288 3 354 42 43 102 127 126 120 118 121 112 103 99 97 101 106 104 99 91 84 88 109 114 110 108 107 109 111 107 87 61 46 39 23 346 334
202 142 190 257 281 290 238 194 120 72 79 86 71 95 120 125 124 118 106 102 102 100 91 95 103 102 97 98 97 101 113 115 109 109 108 98 91 81 48 22 308 332 290 275
188 182 178 220 226 187 290 130 128 124 120 117 117 106 103 124 122 118 105 104 107 103 101 95 97 105 103 103 102 104 112 116 118 112 112 117 90 60 44 13 343 339 323 327